This demonstration page uses our WeatherBlox Daily Observations layout. Learn more.

Left ArrowRight Arrow

41.12389, -100.76542

Hourly Observations for March 1, 2019

Temp ( °F °C ) Dew Point ( °F °C ) Humidity (%) Winds ( mph kmh ) Pressure ( in mb ) Visibility ( mi km ) Precip ( " mm )
12:53 am 00:53 Cloudy 22 -5.6 15 -9.4 75 75 SW 5 7 30.01 1016 10 16 0.00 0.00
1:53 am 01:53 Mostly Clear 20 -6.7 14 -10 78 78 SE 3 6 30.01 1016 10 16 0.00 0.00
2:53 am 02:53 Cloudy 22 -5.6 16 -8.9 78 78 SW 13 20 30.00 1016 10 16 0.00 0.00
3:53 am 03:53 Cloudy 22 -5.6 17 -8.3 82 82 S 6 9 29.98 1015 10 16 0.00 0.00
4:53 am 04:53 Mostly Cloudy 22 -5.6 17 -8.3 82 82 SSE 10 17 29.93 1014 10 16 0.00 0.00
5:53 am 05:53 Clear 26 -3.3 20 -6.7 78 78 WSW 16 26 29.93 1014 10 16 0.00 0.00
6:53 am 06:53 Clear 20 -6.7 16 -8.9 85 85 SW 8 13 29.97 1015 10 16 0.00 0.00
7:53 am 07:53 Sunny 19 -7.2 14 -10 81 81 SSW 8 13 29.96 1015 10 16 0.00 0.00
8:53 am 08:53 Sunny 20 -6.7 15 -9.4 81 81 SW 3 6 29.99 1016 10 16 0.00 0.00
9:53 am 09:53 Sunny 25 -3.9 18 -7.8 75 75 NW 12 19 30.03 1017 10 16 0.00 0.00
10:13 am 10:13 Mostly Cloudy 26 -3.3 20 -6.7 78 78 NW 9 15 30.09 1019 10 16 0.00 0.00
10:43 am 10:43 Cloudy 30 -1.1 23 -5 75 75 N 18 30 30.09 1019 10 16 0.00 0.00
10:53 am 10:53 Cloudy 31 -0.6 24 -4.4 76 76 N 15 24 30.06 1018 10 16 0.00 0.00
11:10 am 11:10 Mostly Cloudy 33 0.6 24 -4.4 70 70 N 20 31 30.08 1019 10 16 0.00 0.00
11:25 am 11:25 Mostly Sunny 34 1.1 23 -5 64 64 N 23 37 30.09 1019 10 16 0.00 0.00
11:53 am 11:53 Partly Cloudy 31 -0.6 23 -5 72 72 N 22 35 30.08 1019 10 16 0.00 0.00
12:22 pm 12:22 Mostly Cloudy 31 -0.6 22 -5.6 69 69 N 21 33 30.14 1021 10 16 0.00 0.00
12:53 pm 12:53 Partly Cloudy 30 -1.1 21 -6.1 69 69 N 20 31 30.14 1021 10 16 0.00 0.00
1:53 pm 13:53 Partly Cloudy 30 -1.1 20 -6.7 66 66 NNE 20 31 30.15 1021 10 16 0.00 0.00
2:53 pm 14:53 Sunny 31 -0.6 20 -6.7 64 64 N 24 39 30.14 1021 10 16 0.00 0.00
3:53 pm 15:53 Sunny 30 -1.1 19 -7.2 64 64 NNE 17 28 30.18 1022 10 16 0.00 0.00
4:53 pm 16:53 Sunny 30 -1.1 18 -7.8 61 61 NE 14 22 30.20 1023 10 16 0.00 0.00
5:53 pm 17:53 Sunny 28 -2.2 18 -7.8 66 66 NNE 9 15 30.22 1023 10 16 0.00 0.00
6:53 pm 18:53 Clear 23 -5 16 -8.9 74 74 NNE 10 17 30.26 1025 10 16 0.00 0.00
7:53 pm 19:53 Clear 21 -6.1 15 -9.4 78 78 E 3 6 30.30 1026 10 16 0.00 0.00
8:53 pm 20:53 Clear 18 -7.8 14 -10 84 84 SW 3 6 30.31 1027 10 16 0.00 0.00
9:53 pm 21:53 Clear 18 -7.8 13 -10.6 81 81 E 5 7 30.32 1027 10 16 0.00 0.00
10:53 pm 22:53 Clear 16 -8.9 12 -11.1 84 84 NE 5 7 30.34 1027 10 16 0.00 0.00
11:53 pm 23:53 Cloudy 17 -8.3 13 -10.6 84 84 ENE 6 9 30.33 1027 10 16 0.00 0.00

Powered by AerisWeather